Weather History for Jackson, MS

Change the Weather History Date:

Tuesday, March 26, 2013

  Actual Average Record
Temperature  
Mean Temperature 40 °F 59 °F  
Max Temperature 49 °F 71 °F 89 °F (1907)
Min Temperature 30 °F 47 °F 25 °F (1955)
Degree Days  
Heating Degree Days 25 7  
Month to date heating degree days 347 246  
Since 1 July heating degree days 2098 2238  
Cooling Degree Days 0 1  
Month to date cooling degree days 3 23  
Year to date cooling degree days 17 33  
Moisture  
Dew Point 24 °F    
Average Humidity 60    
Maximum Humidity 82    
Minimum Humidity 38    
Precipitation  
Precipitation 0.00 in 0.17 in 2.75 in (1946)
Month to date precipitation 5.23 4.18  
Year to date precipitation 22.67 13.91  
Sea Level Pressure  
Sea Level Pressure 30.36 in    
Wind  
Wind Speed 7 mph (NW)    
Max Wind Speed 17 mph    
Max Gust Speed 28 mph    
Visibility 10 miles    
Events      
T = Trace of Precipitation, MM = Missing Value Source: NWS Daily Summary

Daily Weather History Graph

Daily Weather History Graph

Search for Another Location

Airport:

Trip Planner

Search our weather history database for the weather conditions in past years. The results will help you decide how hot, cold, wet, or windy it might be!

Date:

Astronomy

Mar. 26, 2013 Rise Set
Actual Time 6:55 AM CDT 7:16 PM CDT
Civil Twilight 6:31 AM CDT 7:40 PM CDT
Nautical Twilight 6:02 AM CDT 8:09 PM CDT
Astronomical Twilight 5:33 AM CDT 8:38 PM CDT
Moon 6:52 PM CDT (3/26) 6:11 AM CDT (3/26)
Length of Visible Light 13h 09m
Length of Day
12h 20m
Waxing Gibbous, 99% of the Moon is Illuminated
Mar 26
Waxing Gibbous
Mar 27
Full
Apr 2
Last Quarter
Apr 10
New
Apr 18
First Quarter

Hourly Weather History & Observations

Time (CDT) Temp. Windchill Dew Point Humidity Pressure Visibility Wind Dir Wind Speed Gust Speed Precip Events Conditions
12:54 AM 37.9 °F 33.5 °F 23.0 °F 55% 30.30 in 10.0 mi NW 5.8 mph - N/A   Clear
1:54 AM 37.0 °F 32.4 °F 23.0 °F 57% 30.30 in 10.0 mi NW 5.8 mph - N/A   Clear
2:54 AM 35.1 °F 32.2 °F 23.0 °F 61% 30.30 in 10.0 mi WNW 3.5 mph - N/A   Clear
3:54 AM 35.1 °F 31.0 °F 23.0 °F 61% 30.30 in 10.0 mi WNW 4.6 mph - N/A   Clear
4:54 AM 34.0 °F 28.0 °F 21.9 °F 61% 30.30 in 10.0 mi WNW 6.9 mph - N/A   Clear
5:54 AM 34.0 °F 28.8 °F 21.9 °F 61% 30.31 in 10.0 mi WNW 5.8 mph - N/A   Clear
6:54 AM 33.1 °F 25.5 °F 21.9 °F 64% 30.32 in 10.0 mi NW 9.2 mph - N/A   Clear
7:54 AM 35.1 °F 28.6 °F 23.0 °F 61% 30.35 in 10.0 mi NW 8.1 mph - N/A   Partly Cloudy
8:54 AM 37.9 °F 31.5 °F 24.1 °F 57% 30.38 in 10.0 mi NW 9.2 mph - N/A   Partly Cloudy
9:54 AM 39.9 °F 33.4 °F 23.0 °F 51% 30.39 in 10.0 mi NW 10.4 mph - N/A   Partly Cloudy
10:54 AM 43.0 °F 37.7 °F 21.9 °F 43% 30.40 in 10.0 mi NW 9.2 mph - N/A   Scattered Clouds
11:54 AM 44.1 °F 39.0 °F 21.9 °F 42% 30.40 in 10.0 mi NNW 9.2 mph 19.6 mph N/A   Scattered Clouds
12:54 PM 46.0 °F 43.1 °F 23.0 °F 40% 30.39 in 10.0 mi Variable 5.8 mph - N/A   Partly Cloudy
1:54 PM 48.0 °F - 24.1 °F 39% 30.38 in 10.0 mi North 10.4 mph 21.9 mph N/A   Mostly Cloudy
2:54 PM 48.0 °F - 24.1 °F 39% 30.36 in 10.0 mi NW 11.5 mph 20.7 mph N/A   Scattered Clouds
3:54 PM 48.0 °F - 24.1 °F 39% 30.36 in 10.0 mi NW 12.7 mph 17.3 mph N/A   Scattered Clouds
4:54 PM 46.9 °F - 24.1 °F 41% 30.35 in 10.0 mi NW 10.4 mph 18.4 mph N/A   Scattered Clouds
5:54 PM 46.0 °F 40.6 °F 25.0 °F 44% 30.36 in 10.0 mi North 11.5 mph - N/A   Partly Cloudy
6:54 PM 44.1 °F 38.6 °F 25.0 °F 47% 30.37 in 10.0 mi NNW 10.4 mph - N/A   Partly Cloudy
7:54 PM 41.0 °F 35.8 °F 26.1 °F 55% 30.38 in 10.0 mi NNW 8.1 mph - N/A   Clear
8:54 PM 39.0 °F 36.8 °F 27.0 °F 62% 30.39 in 10.0 mi North 3.5 mph - N/A   Clear
9:54 PM 36.0 °F - 28.0 °F 73% 30.40 in 10.0 mi Calm Calm - N/A   Clear
10:54 PM 34.0 °F - 28.0 °F 79% 30.40 in 10.0 mi Calm Calm - N/A   Clear
11:54 PM 32.0 °F - 27.0 °F 82% 30.40 in 10.0 mi Calm Calm - N/A   Clear